This is the latest recevied weather packets stored in our database for station/object W1ERB-13. If no packets are shown the sender has not sent any weather packets the latest 10 day(s).
| Time | Temp. | Humidity | Pressure | Rain* | Wind** | Luminosity | Snow |
|---|---|---|---|---|---|---|---|
| 1777984393 | 15° C | 79% | 1010.6 hPa | 0 mm | - | 200 W/m² | - |
| 1777984089 | 15° C | 78% | 1010.6 hPa | 0 mm | - | 182 W/m² | - |
| 1777983787 | 15.56° C | 78% | 1010.5 hPa | 0 mm | - | 173 W/m² | - |
| 1777983483 | 15.56° C | 77% | 1010.8 hPa | 0 mm | - | 445 W/m² | - |
| 1777983181 | 15° C | 79% | 1010.8 hPa | 0 mm | - | 380 W/m² | - |
| 1777982876 | 15° C | 81% | 1010.9 hPa | 0 mm | - | 311 W/m² | - |
| 1777982573 | 14.44° C | 81% | 1010.8 hPa | 0 mm | - | 257 W/m² | - |
| 1777982271 | 13.89° C | 83% | 1010.7 hPa | 0 mm | - | 244 W/m² | - |
| 1777981969 | 13.89° C | 83% | 1010.5 hPa | 0 mm | - | 221 W/m² | - |
| 1777981666 | 13.89° C | 83% | 1010.5 hPa | 0 mm | - | 211 W/m² | - |
| 1777981362 | 13.33° C | 85% | 1010.7 hPa | 0 mm | - | 163 W/m² | - |
| 1777981059 | 13.33° C | 85% | 1010.8 hPa | 0 mm | - | 86 W/m² | - |
| 1777980756 | 12.78° C | 87% | 1010.8 hPa | 0 mm | - | 194 W/m² | - |
| 1777980452 | 12.22° C | 88% | 1010.9 hPa | 0 mm | - | 164 W/m² | - |
| 1777980150 | 12.22° C | 88% | 1010.7 hPa | 0 mm | - | 58 W/m² | - |
| 1777979850 | 12.22° C | 88% | 1010.7 hPa | 0 mm | - | 61 W/m² | - |
| 1777979546 | 12.22° C | 88% | 1010.5 hPa | 0 mm | - | 75 W/m² | - |
| 1777979242 | 12.78° C | 87% | 1010.7 hPa | 0 mm | - | 74 W/m² | - |
| 1777978939 | 12.22° C | 88% | 1010.2 hPa | 0 mm | - | 101 W/m² | - |
| 1777978636 | 12.22° C | 89% | 1010.4 hPa | 0 mm | - | 108 W/m² | - |
| 1777978331 | 11.67° C | 91% | 1010.4 hPa | 0 mm | - | 84 W/m² | - |
| 1777978028 | 11.11° C | 91% | 1010.2 hPa | 0 mm | - | 56 W/m² | - |
| 1777977726 | 11.11° C | 91% | 1010.2 hPa | 0 mm | - | 41 W/m² | - |
| 1777977422 | 11.11° C | 92% | 1010.3 hPa | 0 mm | - | 32 W/m² | - |
| 1777977120 | 11.11° C | 92% | 1010.2 hPa | 0 mm | - | 26 W/m² | - |
* Rain latest hour (hover to see other rain measurements)
** Current wind speed in m/s (hover to see current wind gust speed)